SL-16 DEB, 22577

Orbit data source: Space-Track

SL-16 DEB, 22577 is space debris in LEO originally from a launch on Fri, 26 Mar 1993 UTC launched from the Tyuratam Missile And Space Complex (TTMTR). Debris objects in space refer to the collection of defunct objects orbiting the Earth. Examples of debris include non-operational satellites, rocket bodies, and fragments generated from explosions, collisions, or faulty payload assembly.

Loading next visibility...
Identifier
22577, 1993-016E
Orbit
LEO
Country
Flag of CISCIS
Related business
Manufacturer
Yuzhnoe
Mission
Spacecraft
Bus & Motor
SEP MOTOR COVER, Unknown motor
Mass
~0 kg wet, ~1 kg dry
Launch date (UTC)
1993-03-26 (33 years ago)
Launch vehicle
Unknown
Launch site
Tyuratam Missile And Space Complex (TTMTR)
Object type
Payload
Rocket body
Debris
Shape & HBR
CONE, 0.6 m
Radar Cross Section
Medium (>0.1 m² and <1 m²)

Expand to show TLE details & history
Last TLE update: 12 hours ago

TLE from 12 hours ago
0 SL-16 DEB
1 22577U 93016E   26255.13119546  .00000044  00000-0  27336-4 0  9995
2 22577  71.0396 133.5608 0117836 295.1557 186.1581 14.43938478761596
Epoch: 2026-09-12T03:08Z
TLE epoch observation values (Epoch: 2026-09-12T03:08:55.287Z)
Latitude
54.12956°
Longitude
-113.01825°
Altitude
837.369 km
Speed
7.396 km/s
True Right ascension
19h 01m 25s
True Declination
53° 58' 04"
Sunlit
Object was in daylight at epoch
Visualization orbit readout
Latitude
Unknown
Longitude
Unknown
Altitude
Unknown
Speed
Unknown
Apparent Right ascension
Unknown
Apparent Declination
Unknown
Sunlit
N/A
Visualization observer readout
Local Sidereal Time
07:40:04
Azimuth
Unknown
Elevation
Unknown
Doppler factor
Unknown
Orbital elements
Apogee altitude
827.325 km
Perigee altitude
659.49 km
Semi-major axis
7,121.545 km
Eccentricity
0.01178
Inclination
71.0396°
RAAN
133.5608°
Arg. of periapsis
295.1557°
True anomaly
186.01534°
Mean anomaly
186.1581°
Eccentric anomaly
186.08651°
Mean motion
3.61145 °/min
Orbital period
99.68 mins
BSTAR
0.000027336
Loading maneuver chart data...
Computing Atmospheric mass density...
Loading historical data...
Loading historical data...
Loading historical data...
Loading historical data...
Loading historical data...
Loading historical data...
Loading historical data...

Documentation

Showing up to 5 results
|